Location: Bouchavesnes-Bergen
(49.9859°N, 2.9203°E)
Time: 03:29:46
(UTC+00:00)

Envisat - Pass Details

Date: 05 February 2023
Orbit: 763 x 765 km, 98.2° (Epoch: 30 March)

Event Time Altitude Azimuth Distance (km) Brightness Sun altitude
Rises 02:47:26 0° 25° (NNE) 3,245 6.8 -42.5°
Reaches altitude 10° 02:50:20 10° 42° (NE) 2,313 6.1 -42.1°
Enters shadow 02:51:45 15° 56° (NE) 1,962 5.7 -41.9°
